sat.trackr.live / text

‹ back to catalog

STARLINK-5954

NORAD 56318 · 2023-058B

PAYLOAD ACTIVE UNKNOWN

§ Identity

Operator
Country
US
Launch date
2023-04-27
Launch site
AFWTR
Launch vehicle
Mass (kg)
RCS (m²)

Purposes: comms

External: N2YO · Heavens-Above · Gunter

§ Orbital elements

Epoch: 2026-05-24T23:59:30.528960Z

Period
95.64 min
Inclination
97.4467°
Eccentricity
0.0001854
Mean motion
15.05662297 rev/d
Perigee alt
548.2 km
Apogee alt
550.8 km
Semi-major
6,927.6 km
B*
-1.0038e-4
RAAN
146.1374°
Arg perigee
74.9364°
Mean anomaly
285.2068°
Rev number
16,933

§ Raw data

STARLINK-59541 56318U 23058B   26144.99965890 -.00001507  00000+0 -10038-3 0  99922 56318  97.4467 146.1374 0001854  74.9364 285.2068 15.05662297169335

JSON: /api/v1/satellites/56318 · /tle

For live sub-satellite position, see the globe view (requires WebGL).

§ Visibility from observer

Set your observer location to see the next 7 days of passes ≥ 10°. The values pass through the URL so the page stays shareable.

No JS? Fill the form by hand. The geolocation button needs JavaScript.